Weather History for Montpelier, VT

Change the Weather History Date:

Monday, December 26, 2011

  Actual Average Record
Temperature  
Mean Temperature 21 °F 19 °F  
Max Temperature 28 °F 28 °F 63 °F (1982)
Min Temperature 13 °F 10 °F -27 °F (1980)
Degree Days  
Heating Degree Days 44 46  
Month to date heating degree days 958 1069  
Since 1 July heating degree days 2366 2915  
Moisture  
Dew Point 20 °F    
Average Humidity 82    
Maximum Humidity 96    
Minimum Humidity 68    
Precipitation  
Precipitation 0.02 in 0.08 in 1.28 in (1969)
Month to date precipitation 1.77 2.37  
Year to date precipitation 52.97 36.90  
Sea Level Pressure  
Sea Level Pressure 30.06 in    
Wind  
Wind Speed 4 mph (NW)    
Max Wind Speed 16 mph    
Max Gust Speed 21 mph    
Visibility 6 miles    
Events Snow    
T = Trace of Precipitation, MM = Missing Value Source: NWS Daily Summary

Daily Weather History Graph

Daily Weather History Graph

Search for Another Location

Airport:

Trip Planner

Search our weather history database for the weather conditions in past years. The results will help you decide how hot, cold, wet, or windy it might be!

Date:

Astronomy

Dec. 26, 2011 Rise Set
Actual Time 7:24 AM EST 4:17 PM EST
Civil Twilight 6:51 AM EST 4:50 PM EST
Nautical Twilight 6:14 AM EST 5:27 PM EST
Astronomical Twilight 5:39 AM EST 6:02 PM EST
Moon 8:38 AM EST (12/26) 6:46 PM EST (12/26)
Length of Visible Light 9h 59m
Length of Day
8h 52m
Waxing Crescent, 5% of the Moon is Illuminated
Dec 26
Waxing Crescent
Jan 1
First Quarter
Jan 9
Full
Jan 16
Last Quarter
Jan 23
New

Hourly Weather History & Observations

Time (EST) Temp. Windchill Dew Point Humidity Pressure Visibility Wind Dir Wind Speed Gust Speed Precip Events Conditions
12:28 AM 21.2 °F - 21.2 °F 100% 29.82 in 2.0 mi Calm Calm - 0.00 in Snow Light Snow
12:37 AM 21.2 °F - 21.2 °F 100% 29.82 in 1.5 mi Calm Calm - 0.01 in Snow Light Snow
12:51 AM 23.0 °F - 21.0 °F 92% 29.88 in 1.8 mi Calm Calm - 0.01 in Snow Light Snow
12:59 AM 23.0 °F - 19.4 °F 86% 29.82 in 2.0 mi Calm Calm - 0.00 in Snow Light Snow
1:27 AM 23.0 °F - 21.2 °F 93% 29.82 in 2.5 mi Calm Calm - 0.01 in Snow Light Snow
1:34 AM 23.0 °F - 21.2 °F 93% 29.82 in 3.0 mi Calm Calm - 0.01 in Snow Light Snow
1:51 AM 23.0 °F - 21.0 °F 92% 29.89 in 3.0 mi Calm Calm - 0.01 in Snow Light Snow
2:09 AM 23.0 °F - 21.2 °F 93% 29.84 in 2.5 mi Calm Calm - 0.00 in Snow Light Snow
2:23 AM 23.0 °F - 21.2 °F 93% 29.84 in 2.0 mi Calm Calm - 0.00 in Snow Light Snow
2:42 AM 23.0 °F - 21.2 °F 93% 29.84 in 3.0 mi Calm Calm - 0.00 in Snow Light Snow
2:51 AM 21.9 °F - 19.9 °F 92% 29.91 in 4.0 mi Calm Calm - 0.00 in Snow Light Snow
3:15 AM 21.2 °F - 19.4 °F 93% 29.86 in 7.0 mi Calm Calm - N/A   Overcast
3:51 AM 23.0 °F - 21.0 °F 92% 29.93 in 7.0 mi Calm Calm - 0.00 in   Overcast
4:21 AM 24.8 °F 17.9 °F 23.0 °F 93% 29.89 in 4.0 mi NW 5.8 mph - 0.00 in Snow Light Snow
4:28 AM 24.8 °F 19.1 °F 23.0 °F 93% 29.89 in 3.0 mi WNW 4.6 mph - 0.00 in Snow Light Snow
4:51 AM 26.1 °F - 24.1 °F 92% 29.95 in 5.0 mi Calm Calm - 0.00 in Snow Light Snow
5:51 AM 28.0 °F 18.1 °F 26.1 °F 92% 30.01 in 7.0 mi WNW 11.5 mph 16.1 mph 0.00 in   Overcast
6:51 AM 26.1 °F 14.0 °F 24.1 °F 92% 30.05 in 9.0 mi WNW 15.0 mph 20.7 mph N/A   Overcast
7:51 AM 25.0 °F 15.5 °F 23.0 °F 92% 30.12 in 5.0 mi NW 9.2 mph - N/A   Overcast
8:41 AM 24.8 °F 16.9 °F 21.2 °F 86% 30.10 in 7.0 mi NW 6.9 mph - N/A   Overcast
8:51 AM 25.0 °F 18.1 °F 21.9 °F 88% 30.17 in 4.0 mi NNW 5.8 mph - 0.00 in Snow Light Snow
9:07 AM 24.8 °F 19.1 °F 21.2 °F 86% 30.12 in 3.0 mi Variable 4.6 mph - 0.00 in Snow Light Snow
9:14 AM 24.8 °F 16.9 °F 21.2 °F 86% 30.13 in 2.5 mi NW 6.9 mph - 0.00 in Snow Light Snow
9:39 AM 24.8 °F 16.9 °F 21.2 °F 86% 30.13 in 3.0 mi NNW 6.9 mph - 0.00 in Snow Light Snow
9:51 AM 24.1 °F 15.2 °F 21.9 °F 91% 30.19 in 3.0 mi NW 8.1 mph - 0.00 in Snow Light Snow
10:51 AM 25.0 °F 17.1 °F 21.0 °F 85% 30.20 in 6.0 mi WNW 6.9 mph - 0.00 in Snow Light Snow
11:26 AM 24.8 °F 17.9 °F 19.4 °F 80% 30.15 in 9.0 mi NNW 5.8 mph 17.3 mph N/A   Overcast
11:51 AM 25.0 °F 14.8 °F 19.9 °F 81% 30.22 in 10.0 mi NW 10.4 mph - N/A   Overcast
12:51 PM 26.1 °F 15.6 °F 18.0 °F 71% 30.21 in 10.0 mi NNW 11.5 mph 19.6 mph N/A   Mostly Cloudy
1:06 PM 26.6 °F 16.2 °F 17.6 °F 69% 30.15 in 10.0 mi NNW 11.5 mph - N/A   Scattered Clouds
1:19 PM 26.6 °F 17.5 °F 17.6 °F 69% 30.16 in 10.0 mi NW 9.2 mph - N/A   Mostly Cloudy
1:51 PM 27.0 °F 19.5 °F 19.0 °F 72% 30.22 in 10.0 mi NNW 6.9 mph - N/A   Mostly Cloudy
2:17 PM 26.6 °F 19.1 °F 17.6 °F 69% 30.15 in 10.0 mi North 6.9 mph - N/A   Partly Cloudy
2:51 PM 27.0 °F 23.0 °F 18.0 °F 69% 30.23 in 10.0 mi NNW 3.5 mph - N/A   Clear
3:51 PM 23.0 °F - 17.1 °F 78% 30.24 in 10.0 mi Calm Calm - N/A   Clear
4:51 PM 18.0 °F 9.8 °F 16.0 °F 92% 30.25 in 10.0 mi South 5.8 mph - N/A   Clear
5:51 PM 17.1 °F - 15.1 °F 92% 30.24 in 10.0 mi Calm Calm - N/A   Clear
6:51 PM 17.1 °F - 15.1 °F 92% 30.25 in 10.0 mi Calm Calm - N/A   Clear
7:51 PM 19.0 °F - 15.1 °F 85% 30.24 in 10.0 mi Calm Calm - N/A   Clear
8:51 PM 17.1 °F - 14.0 °F 88% 30.23 in 10.0 mi Calm Calm - N/A   Clear
9:51 PM 16.0 °F - 14.0 °F 92% 30.20 in 10.0 mi Calm Calm - N/A   Clear
10:51 PM 15.1 °F - 12.9 °F 91% 30.21 in 10.0 mi Calm Calm - N/A   Clear
11:51 PM 14.0 °F - 12.0 °F 92% 30.14 in 10.0 mi Calm Calm - N/A   Clear